Terug naar catalogus

STARLINK-32913

ActiefCommunicatieVLEO
NORAD 63098·PAYLOAD·🇺🇸 United States

Gelanceerd Feb 23, 2025 vanaf Vandenberg Space Force Base

Loading…

Volgende Passages (komende 24 uur)

TLE

VersSource: CelesTrak SupGP

Epoch: Sep 14, 2026, 21:02 UTC

1 63098C 25037X   26257.87687500  .00059189  00000+0  20592-2 0  2574
2 63098  70.0006 235.7460 0003043 264.9463  69.7210 15.29546832    13

Volg STARLINK-32913 in realtime met AllMySat

Download on the App Store